logo tempoitalia

Diretta Meteo Carrizo Springs, Stati Uniti (USA)lunedì 31 agosto ore 02:35

Mappa
Sereno 28 °C Sereno 24 Ore: T.min 23 T.max 39
Ponente Sud-Est Km/h 16.7 Punto di rugiada: 21 °C Umidità: 65% Visibilità: 10 Km
Il sole sorge alle: 08:17 Il sole tramonta alle: 21:01
31 Agosto 2026 02:35 tempo osservato: Sereno Sereno 28 65 1015 vento: Nord SE 16.7
31 Agosto 2026 02:15 tempo osservato: Sereno Sereno 28 65 1015 vento: Nord S/SE 18.5
31 Agosto 2026 01:55 tempo osservato: Sereno Sereno 29 62 1014 vento: Nord SE 13
31 Agosto 2026 01:35 tempo osservato: Sereno Sereno 29 66 1014 vento: Nord SE 14.8
31 Agosto 2026 01:15 tempo osservato: Sereno Sereno 30 62 1014 vento: Nord SE 22.2
31 Agosto 2026 00:55 tempo osservato: Sereno Sereno 30 58 1014 vento: Nord SE 22.2
31 Agosto 2026 00:35 tempo osservato: Sereno Sereno 30 58 1014 vento: Nord SE 14.8
31 Agosto 2026 00:15 tempo osservato: Sereno Sereno 31 55 1014 vento: Nord SE 16.7
30 Agosto 2026 23:55 tempo osservato: Sereno Sereno 31 55 1013 vento: Nord E/SE 24
30 Agosto 2026 23:35 tempo osservato: Sereno Sereno 31 55 1013 vento: Nord SE 22.2
30 Agosto 2026 23:15 tempo osservato: Sereno Sereno 32 52 1012 vento: Nord E/SE 22.2
30 Agosto 2026 22:55 tempo osservato: Sereno Sereno 33 49 1012 vento: Nord SE 25.9
30 Agosto 2026 22:35 tempo osservato: Sereno Sereno 33 49 1012 vento: Nord SE 20.3
30 Agosto 2026 22:15 tempo osservato: Sereno Sereno 33 38 1011 vento: Nord SE 18.5
30 Agosto 2026 21:55 tempo osservato: Sereno Sereno 32 40 1011 vento: Nord E/SE 7.4
30 Agosto 2026 21:35 tempo osservato: Sereno Sereno 33 38 1011 vento: Nord E/SE 7.4
30 Agosto 2026 21:15 tempo osservato: Sereno Sereno 34 36 1011 vento: Nord N 0
30 Agosto 2026 20:55 tempo osservato: Sereno Sereno 35 34 1011 vento: Nord E/SE 9.3
30 Agosto 2026 20:35 tempo osservato: Sereno Sereno 36 32 1010 vento: Nord E 7.4
30 Agosto 2026 20:15 tempo osservato: Sereno Sereno 37 30 1010 vento: Nord E 11.1
30 Agosto 2026 19:55 tempo osservato: Sereno Sereno 37 30 1010 vento: Nord E 14.8
30 Agosto 2026 19:35 tempo osservato: Sereno Sereno 38 29 1010 vento: Nord E 11.1
30 Agosto 2026 19:15 tempo osservato: Sereno Sereno 38 29 1010 vento: Nord E/SE 11.1
30 Agosto 2026 18:55 tempo osservato: Sereno Sereno 37 32 1010 vento: Nord E 13
30 Agosto 2026 18:35 tempo osservato: Sereno Sereno 38 31 1010 vento: Nord E 14.8
30 Agosto 2026 18:15 tempo osservato: Sereno Sereno 38 31 1010 vento: Nord E/SE 14.8
30 Agosto 2026 17:55 tempo osservato: Sereno Sereno 39 29 1011 vento: Nord E 16.7
30 Agosto 2026 17:35 tempo osservato: Sereno Sereno 39 29 1011 vento: Nord E 14.8
30 Agosto 2026 17:15 tempo osservato: Sereno Sereno 38 31 1011 vento: Nord E 14.8
30 Agosto 2026 16:55 tempo osservato: Sereno Sereno 38 31 1011 vento: Nord E/NE 13
30 Agosto 2026 16:35 tempo osservato: Sereno Sereno 39 29 1012 vento: Nord E 16.7
30 Agosto 2026 16:15 tempo osservato: Sereno Sereno 39 31 1012 vento: Nord E/NE 13
30 Agosto 2026 15:55 tempo osservato: Sereno Sereno 38 35 1013 vento: Nord E/NE 16.7
30 Agosto 2026 15:35 tempo osservato: Sereno Sereno 37 37 1013 vento: Nord E/NE 14.8
30 Agosto 2026 15:15 tempo osservato: Sereno Sereno 38 35 1014 vento: Nord E 11.1
30 Agosto 2026 14:55 tempo osservato: Sereno Sereno 37 37 1014 vento: Nord S/SE 9.3
30 Agosto 2026 14:35 tempo osservato: Sereno Sereno 37 37 1015 vento: Nord E/SE 11.1
30 Agosto 2026 14:15 tempo osservato: Sereno Sereno 38 37 1015 vento: Nord SE 11.1
30 Agosto 2026 13:55 tempo osservato: Sereno Sereno 36 41 1015 vento: Nord S 9.3
30 Agosto 2026 13:35 tempo osservato: Sereno Sereno 36 41 1016 vento: Nord E/SE 14.8
30 Agosto 2026 13:15 tempo osservato: Sereno Sereno 35 47 1016 vento: Nord SE 9.3
30 Agosto 2026 12:55 tempo osservato: Sereno Sereno 35 47 1016 vento: Nord E 9.3
30 Agosto 2026 12:35 tempo osservato: Sereno Sereno 33 52 1016 vento: Nord S 7.4
30 Agosto 2026 12:15 tempo osservato: Sereno Sereno 33 55 1016 vento: Nord SE 11.1
30 Agosto 2026 11:55 tempo osservato: Sereno Sereno 32 59 1016 vento: Nord E 11.1
30 Agosto 2026 11:35 tempo osservato: Sereno Sereno 31 62 1016 vento: Nord SE 7.4
30 Agosto 2026 11:15 tempo osservato: Sereno Sereno 31 62 1016 vento: Nord S 11.1
30 Agosto 2026 10:55 tempo osservato: Sereno Sereno 30 66 1016 vento: Nord SE 11.1
30 Agosto 2026 10:35 tempo osservato: Sereno Sereno 28 83 1016 vento: Nord SE 11.1
30 Agosto 2026 10:15 tempo osservato: Sereno Sereno 27 88 1016 vento: Nord SE 9.3
30 Agosto 2026 09:55 tempo osservato: Sereno Sereno 26 100 1016 vento: Nord E/SE 11.1
30 Agosto 2026 09:35 tempo osservato: Sereno Sereno 25 100 1016 vento: Nord E/SE 9.3
30 Agosto 2026 09:15 tempo osservato: Sereno Sereno 25 100 1016 vento: Nord E/SE 9.3
30 Agosto 2026 08:55 tempo osservato: Sereno Sereno 23 100 1016 vento: Nord N 5.5
30 Agosto 2026 08:35 tempo osservato: Sereno Sereno 23 100 1016 vento: Nord N 0
30 Agosto 2026 08:15 tempo osservato: Sereno Sereno 23 100 1015 vento: Nord N 5.5
30 Agosto 2026 07:55 tempo osservato: Sereno Sereno 23 100 1015 vento: Nord N 5.5
30 Agosto 2026 07:35 tempo osservato: Sereno Sereno 23 100 1015 vento: Nord N 0
30 Agosto 2026 07:15 tempo osservato: Sereno Sereno 24 100 1015 vento: Nord N 5.5
30 Agosto 2026 06:55 tempo osservato: Sereno Sereno 24 94 1015 vento: Nord N 5.5
30 Agosto 2026 06:35 tempo osservato: Sereno Sereno 25 83 1015 vento: Nord E/SE 7.4
30 Agosto 2026 06:15 tempo osservato: Sereno Sereno 25 83 1015 vento: Nord N 5.5
30 Agosto 2026 05:55 tempo osservato: Sereno Sereno 25 83 1015 vento: Nord N 5.5
30 Agosto 2026 05:35 tempo osservato: Sereno Sereno 25 78 1015 vento: Nord N 5.5
30 Agosto 2026 05:15 tempo osservato: Sereno Sereno 26 73 1015 vento: Nord N 5.5
30 Agosto 2026 04:55 tempo osservato: Sereno Sereno 26 73 1015 vento: Nord N 0
30 Agosto 2026 04:35 tempo osservato: Sereno Sereno 26 73 1015 vento: Nord SE 7.4
30 Agosto 2026 04:15 tempo osservato: Sereno Sereno 27 69 1015 vento: Nord SE 9.3
30 Agosto 2026 03:55 tempo osservato: Sereno Sereno 27 69 1015 vento: Nord SE 9.3
30 Agosto 2026 03:35 tempo osservato: Sereno Sereno 27 69 1015 vento: Nord SE 9.3
30 Agosto 2026 03:15 tempo osservato: Sereno Sereno 27 69 1015 vento: Nord SE 11.1
30 Agosto 2026 02:55 tempo osservato: Sereno Sereno 28 65 1016 vento: Nord SE 11.1
30 Agosto 2026 02:35 tempo osservato: Sereno Sereno 28 65 1016 vento: Nord SE 13